contact:dominique.lefevre@mio.osupytheas.fr, maurice.libes@osupytheas.fr, didier.mallarino@osupytheas.fr
Project:EMSO http://www.emso-fr.org/EMSO-France
Depth: 2436.0 m
Title:EMSO Ligure Ouest : Data MII capteur OXYGEN
DateTime,Latitude,Longitude,Optode-Type,Optode_Serial,Oxygen,Saturation_Oxygen,Temperature
DateTime,Latitude,Longitude,Optode-Type,Optode_Serial,µmol.l-1,%,degC
2017-11-26T00:00:58,42.805,6.029,4330,1995,197.309,60.337,13.286
2017-11-26T00:03:58,42.805,6.029,4330,1995,197.267,60.325,13.286
2017-11-26T00:06:58,42.805,6.029,4330,1995,197.275,60.327,13.287
2017-11-26T00:09:58,42.805,6.029,4330,1995,197.280,60.329,13.286
2017-11-26T00:12:58,42.805,6.029,4330,1995,197.323,60.342,13.287
2017-11-26T00:15:58,42.805,6.029,4330,1995,197.365,60.354,13.286
2017-11-26T00:18:58,42.805,6.029,4330,1995,197.279,60.329,13.286
2017-11-26T00:21:58,42.805,6.029,4330,1995,197.265,60.324,13.286
2017-11-26T00:24:58,42.805,6.029,4330,1995,197.348,60.350,13.286
2017-11-26T00:27:58,42.805,6.029,4330,1995,197.297,60.334,13.287
2017-11-26T00:30:58,42.805,6.029,4330,1995,197.325,60.343,13.287
2017-11-26T00:33:58,42.805,6.029,4330,1995,197.267,60.325,13.286
2017-11-26T00:36:58,42.805,6.029,4330,1995,197.180,60.298,13.286
2017-11-26T00:39:58,42.805,6.029,4330,1995,197.190,60.301,13.286
2017-11-26T00:42:58,42.805,6.029,4330,1995,197.240,60.317,13.287
2017-11-26T00:45:58,42.805,6.029,4330,1995,197.247,60.319,13.287
2017-11-26T00:48:58,42.805,6.029,4330,1995,197.248,60.319,13.286
2017-11-26T00:51:58,42.805,6.029,4330,1995,197.266,60.324,13.286
2017-11-26T00:54:58,42.805,6.029,4330,1995,197.191,60.301,13.286
2017-11-26T00:57:58,42.805,6.029,4330,1995,197.191,60.301,13.286
2017-11-26T01:00:58,42.805,6.029,4330,1995,197.106,60.275,13.286
2017-11-26T01:03:58,42.805,6.029,4330,1995,197.119,60.279,13.286
2017-11-26T01:06:58,42.805,6.029,4330,1995,197.113,60.278,13.286
2017-11-26T01:09:58,42.805,6.029,4330,1995,197.139,60.286,13.286
2017-11-26T01:12:58,42.805,6.029,4330,1995,197.089,60.270,13.286
2017-11-26T01:15:58,42.805,6.029,4330,1995,197.050,60.258,13.287
2017-11-26T01:18:58,42.805,6.029,4330,1995,197.063,60.262,13.286
2017-11-26T01:21:58,42.805,6.029,4330,1995,197.077,60.266,13.286
2017-11-26T01:24:58,42.805,6.029,4330,1995,197.132,60.283,13.286
2017-11-26T01:27:58,42.805,6.029,4330,1995,197.121,60.281,13.287
2017-11-26T01:30:58,42.805,6.029,4330,1995,197.070,60.265,13.286
2017-11-26T01:33:58,42.805,6.029,4330,1995,197.032,60.253,13.286
2017-11-26T01:36:58,42.805,6.029,4330,1995,197.005,60.245,13.287
2017-11-26T01:39:58,42.805,6.029,4330,1995,197.007,60.245,13.286
2017-11-26T01:42:58,42.805,6.029,4330,1995,197.019,60.249,13.286
2017-11-26T01:45:58,42.805,6.029,4330,1995,196.963,60.231,13.286
2017-11-26T01:48:58,42.805,6.029,4330,1995,196.992,60.241,13.286
2017-11-26T01:51:58,42.805,6.029,4330,1995,196.974,60.236,13.287
2017-11-26T01:54:58,42.805,6.029,4330,1995,196.941,60.225,13.286
2017-11-26T01:57:58,42.805,6.029,4330,1995,196.958,60.230,13.286
2017-11-26T02:00:58,42.805,6.029,4330,1995,196.896,60.211,13.286
2017-11-26T02:03:58,42.805,6.029,4330,1995,196.894,60.211,13.286
2017-11-26T02:06:58,42.805,6.029,4330,1995,196.888,60.209,13.286
2017-11-26T02:09:58,42.805,6.029,4330,1995,196.853,60.198,13.287
2017-11-26T02:12:58,42.805,6.029,4330,1995,196.945,60.226,13.286
2017-11-26T02:15:58,42.805,6.029,4330,1995,196.891,60.210,13.286
2017-11-26T02:18:58,42.805,6.029,4330,1995,196.760,60.170,13.287
2017-11-26T02:21:58,42.805,6.029,4330,1995,196.824,60.189,13.286
2017-11-26T02:24:58,42.805,6.029,4330,1995,196.765,60.171,13.286
2017-11-26T02:27:58,42.805,6.029,4330,1995,196.836,60.193,13.286
2017-11-26T02:30:58,42.805,6.029,4330,1995,196.775,60.174,13.287
2017-11-26T02:33:58,42.805,6.029,4330,1995,196.817,60.188,13.287
2017-11-26T02:36:58,42.805,6.029,4330,1995,196.754,60.168,13.286
2017-11-26T02:39:58,42.805,6.029,4330,1995,196.720,60.158,13.287
2017-11-26T02:42:58,42.805,6.029,4330,1995,196.721,60.158,13.287
2017-11-26T02:45:58,42.805,6.029,4330,1995,196.716,60.157,13.287
2017-11-26T02:48:58,42.805,6.029,4330,1995,196.705,60.153,13.286
2017-11-26T02:51:58,42.805,6.029,4330,1995,196.855,60.198,13.286
2017-11-26T02:54:58,42.805,6.029,4330,1995,196.799,60.182,13.286
2017-11-26T02:57:58,42.805,6.029,4330,1995,196.759,60.169,13.286
2017-11-26T03:00:58,42.805,6.029,4330,1995,196.741,60.164,13.286
2017-11-26T03:03:58,42.805,6.029,4330,1995,196.696,60.150,13.286
2017-11-26T03:06:58,42.805,6.029,4330,1995,196.734,60.161,13.286
2017-11-26T03:09:58,42.805,6.029,4330,1995,196.742,60.164,13.286
2017-11-26T03:12:58,42.805,6.029,4330,1995,196.792,60.180,13.286
2017-11-26T03:15:58,42.805,6.029,4330,1995,196.719,60.157,13.286
2017-11-26T03:18:58,42.805,6.029,4330,1995,196.713,60.155,13.286
2017-11-26T03:21:58,42.805,6.029,4330,1995,196.714,60.156,13.286
2017-11-26T03:24:58,42.805,6.029,4330,1995,196.695,60.150,13.287
2017-11-26T03:27:58,42.805,6.029,4330,1995,196.606,60.124,13.287
2017-11-26T03:30:58,42.805,6.029,4330,1995,196.682,60.146,13.286
2017-11-26T03:33:58,42.805,6.029,4330,1995,196.751,60.167,13.286
2017-11-26T03:36:58,42.805,6.029,4330,1995,196.768,60.172,13.287
2017-11-26T03:39:58,42.805,6.029,4330,1995,196.699,60.151,13.286
2017-11-26T03:42:58,42.805,6.029,4330,1995,196.691,60.149,13.287
2017-11-26T03:45:58,42.805,6.029,4330,1995,196.590,60.118,13.286
2017-11-26T03:48:58,42.805,6.029,4330,1995,196.665,60.140,13.286
2017-11-26T03:51:58,42.805,6.029,4330,1995,196.674,60.143,13.286
2017-11-26T03:54:58,42.805,6.029,4330,1995,196.665,60.141,13.286
2017-11-26T03:57:58,42.805,6.029,4330,1995,196.658,60.140,13.287
2017-11-26T04:00:58,42.805,6.029,4330,1995,196.631,60.130,13.286
2017-11-26T04:03:58,42.805,6.029,4330,1995,196.651,60.137,13.286
2017-11-26T04:06:58,42.805,6.029,4330,1995,196.592,60.118,13.286
2017-11-26T04:09:58,42.805,6.029,4330,1995,196.602,60.121,13.286
2017-11-26T04:12:58,42.805,6.029,4330,1995,196.692,60.149,13.286
2017-11-26T04:15:58,42.805,6.029,4330,1995,196.593,60.119,13.286
2017-11-26T04:18:58,42.805,6.029,4330,1995,196.682,60.146,13.286
2017-11-26T04:21:58,42.805,6.029,4330,1995,196.698,60.151,13.286
2017-11-26T04:24:58,42.805,6.029,4330,1995,196.739,60.163,13.286
2017-11-26T04:27:58,42.805,6.029,4330,1995,196.863,60.201,13.286
2017-11-26T04:30:58,42.805,6.029,4330,1995,196.909,60.215,13.286
2017-11-26T04:33:58,42.805,6.029,4330,1995,197.045,60.257,13.286
2017-11-26T04:36:58,42.805,6.029,4330,1995,196.999,60.242,13.286
2017-11-26T04:39:58,42.805,6.029,4330,1995,196.952,60.228,13.286
2017-11-26T04:42:58,42.805,6.029,4330,1995,197.071,60.264,13.286
2017-11-26T04:45:58,42.805,6.029,4330,1995,197.034,60.253,13.286
2017-11-26T04:48:58,42.805,6.029,4330,1995,196.963,60.232,13.286
2017-11-26T04:51:58,42.805,6.029,4330,1995,197.015,60.247,13.286
2017-11-26T04:54:58,42.805,6.029,4330,1995,197.070,60.264,13.286
2017-11-26T04:57:58,42.805,6.029,4330,1995,197.027,60.251,13.286
2017-11-26T05:00:58,42.805,6.029,4330,1995,197.011,60.246,13.286
2017-11-26T05:03:58,42.805,6.029,4330,1995,196.989,60.240,13.286
2017-11-26T05:06:58,42.805,6.029,4330,1995,197.040,60.255,13.286
2017-11-26T05:09:58,42.805,6.029,4330,1995,197.039,60.254,13.286
2017-11-26T05:12:58,42.805,6.029,4330,1995,197.042,60.256,13.286
2017-11-26T05:15:58,42.805,6.029,4330,1995,197.065,60.263,13.286
2017-11-26T05:18:58,42.805,6.029,4330,1995,197.083,60.268,13.286
2017-11-26T05:21:58,42.805,6.029,4330,1995,197.129,60.282,13.286
2017-11-26T05:24:58,42.805,6.029,4330,1995,197.147,60.287,13.286
2017-11-26T05:27:58,42.805,6.029,4330,1995,197.120,60.279,13.286
2017-11-26T05:30:58,42.805,6.029,4330,1995,197.039,60.254,13.286
2017-11-26T05:33:58,42.805,6.029,4330,1995,197.114,60.277,13.286
2017-11-26T05:36:58,42.805,6.029,4330,1995,197.166,60.293,13.286
2017-11-26T05:39:58,42.805,6.029,4330,1995,197.157,60.290,13.286
2017-11-26T05:42:58,42.805,6.029,4330,1995,197.158,60.290,13.286
2017-11-26T05:45:58,42.805,6.029,4330,1995,197.206,60.305,13.286
2017-11-26T05:48:58,42.805,6.029,4330,1995,197.187,60.299,13.286
2017-11-26T05:51:58,42.805,6.029,4330,1995,197.281,60.328,13.286
2017-11-26T05:54:58,42.805,6.029,4330,1995,197.245,60.317,13.286
2017-11-26T05:57:58,42.805,6.029,4330,1995,197.239,60.315,13.286
2017-11-26T06:00:58,42.805,6.029,4330,1995,197.252,60.319,13.286
2017-11-26T06:03:58,42.805,6.029,4330,1995,197.269,60.324,13.286
2017-11-26T06:06:58,42.805,6.029,4330,1995,197.262,60.322,13.285
2017-11-26T06:09:58,42.805,6.029,4330,1995,197.258,60.321,13.286
2017-11-26T06:12:58,42.805,6.029,4330,1995,197.311,60.337,13.285
2017-11-26T06:15:58,42.805,6.029,4330,1995,197.316,60.339,13.285
2017-11-26T06:18:58,42.805,6.029,4330,1995,197.319,60.340,13.286
2017-11-26T06:21:58,42.805,6.029,4330,1995,197.337,60.345,13.285
2017-11-26T06:24:58,42.805,6.029,4330,1995,197.306,60.336,13.286
2017-11-26T06:27:58,42.805,6.029,4330,1995,197.290,60.331,13.286
2017-11-26T06:30:58,42.805,6.029,4330,1995,197.312,60.337,13.285
2017-11-26T06:33:58,42.805,6.029,4330,1995,197.253,60.319,13.285
2017-11-26T06:36:58,42.805,6.029,4330,1995,197.346,60.348,13.285
2017-11-26T06:39:58,42.805,6.029,4330,1995,197.371,60.355,13.285
2017-11-26T06:42:58,42.805,6.029,4330,1995,197.396,60.363,13.285
2017-11-26T06:45:58,42.805,6.029,4330,1995,197.316,60.339,13.286
2017-11-26T06:48:58,42.805,6.029,4330,1995,197.377,60.357,13.285
2017-11-26T06:51:58,42.805,6.029,4330,1995,197.411,60.367,13.285
2017-11-26T06:54:58,42.805,6.029,4330,1995,197.362,60.352,13.285
2017-11-26T06:57:58,42.805,6.029,4330,1995,197.352,60.350,13.286
2017-11-26T07:00:58,42.805,6.029,4330,1995,197.366,60.353,13.285
2017-11-26T07:03:58,42.805,6.029,4330,1995,197.317,60.339,13.285
2017-11-26T07:06:58,42.805,6.029,4330,1995,197.403,60.365,13.285
2017-11-26T07:09:58,42.805,6.029,4330,1995,197.481,60.389,13.285
2017-11-26T07:12:57,42.805,6.029,4330,1995,197.492,60.392,13.285
2017-11-26T07:15:57,42.805,6.029,4330,1995,197.564,60.414,13.285
2017-11-26T07:18:57,42.805,6.029,4330,1995,197.624,60.433,13.285
2017-11-26T07:21:57,42.805,6.029,4330,1995,197.555,60.411,13.285
2017-11-26T07:24:57,42.805,6.029,4330,1995,197.501,60.395,13.285
2017-11-26T07:27:57,42.805,6.029,4330,1995,197.532,60.404,13.285
2017-11-26T07:30:57,42.805,6.029,4330,1995,197.611,60.429,13.285
2017-11-26T07:33:57,42.805,6.029,4330,1995,197.712,60.460,13.285
2017-11-26T07:36:57,42.805,6.029,4330,1995,197.746,60.470,13.285
2017-11-26T07:39:57,42.805,6.029,4330,1995,197.797,60.485,13.285
2017-11-26T07:42:57,42.805,6.029,4330,1995,197.849,60.501,13.285
2017-11-26T07:45:57,42.805,6.029,4330,1995,197.790,60.483,13.285
2017-11-26T07:48:57,42.805,6.029,4330,1995,197.887,60.513,13.285
2017-11-26T07:51:57,42.805,6.029,4330,1995,197.904,60.518,13.285
2017-11-26T07:54:57,42.805,6.029,4330,1995,197.935,60.528,13.285
2017-11-26T07:57:57,42.805,6.029,4330,1995,198.004,60.549,13.285
2017-11-26T08:00:57,42.805,6.029,4330,1995,198.040,60.560,13.285
2017-11-26T08:03:57,42.805,6.029,4330,1995,198.099,60.578,13.285
2017-11-26T08:06:57,42.805,6.029,4330,1995,198.165,60.598,13.285
2017-11-26T08:09:57,42.805,6.029,4330,1995,198.169,60.599,13.285
2017-11-26T08:12:57,42.805,6.029,4330,1995,198.205,60.610,13.285
2017-11-26T08:15:57,42.805,6.029,4330,1995,198.236,60.620,13.285
2017-11-26T08:18:57,42.805,6.029,4330,1995,198.265,60.628,13.285
2017-11-26T08:21:57,42.805,6.029,4330,1995,198.283,60.634,13.285
2017-11-26T08:24:57,42.805,6.029,4330,1995,198.342,60.652,13.285
2017-11-26T08:27:57,42.805,6.029,4330,1995,198.297,60.638,13.285
2017-11-26T08:30:57,42.805,6.029,4330,1995,198.331,60.649,13.285
2017-11-26T08:33:57,42.805,6.029,4330,1995,198.356,60.657,13.285
2017-11-26T08:36:57,42.805,6.029,4330,1995,198.335,60.650,13.285
2017-11-26T08:39:57,42.805,6.029,4330,1995,198.342,60.652,13.285
2017-11-26T08:42:57,42.805,6.029,4330,1995,198.369,60.660,13.285
2017-11-26T08:45:57,42.805,6.029,4330,1995,198.364,60.659,13.285
2017-11-26T08:48:57,42.805,6.029,4330,1995,198.364,60.659,13.285
2017-11-26T08:51:57,42.805,6.029,4330,1995,198.366,60.660,13.285
2017-11-26T08:54:57,42.805,6.029,4330,1995,198.346,60.653,13.285
2017-11-26T08:57:57,42.805,6.029,4330,1995,198.366,60.659,13.285
2017-11-26T09:00:57,42.805,6.029,4330,1995,198.330,60.648,13.285
2017-11-26T09:03:57,42.805,6.029,4330,1995,198.399,60.670,13.285
2017-11-26T09:06:57,42.805,6.029,4330,1995,198.357,60.657,13.285
2017-11-26T09:09:57,42.805,6.029,4330,1995,198.251,60.624,13.285
2017-11-26T09:12:57,42.805,6.029,4330,1995,198.196,60.607,13.285
2017-11-26T09:15:57,42.805,6.029,4330,1995,198.182,60.603,13.285
2017-11-26T09:18:57,42.805,6.029,4330,1995,198.188,60.605,13.285
2017-11-26T09:21:57,42.805,6.029,4330,1995,198.198,60.608,13.285
2017-11-26T09:24:57,42.805,6.029,4330,1995,198.240,60.621,13.285
2017-11-26T09:27:57,42.805,6.029,4330,1995,198.319,60.645,13.285
2017-11-26T09:30:57,42.805,6.029,4330,1995,198.316,60.644,13.285
2017-11-26T09:33:57,42.805,6.029,4330,1995,198.390,60.667,13.285
2017-11-26T09:36:57,42.805,6.029,4330,1995,198.396,60.669,13.285
2017-11-26T09:39:57,42.805,6.029,4330,1995,198.456,60.687,13.285
2017-11-26T09:42:57,42.805,6.029,4330,1995,198.429,60.679,13.285
2017-11-26T09:45:57,42.805,6.029,4330,1995,198.453,60.686,13.285
2017-11-26T09:48:57,42.805,6.029,4330,1995,198.417,60.675,13.285
2017-11-26T09:51:57,42.805,6.029,4330,1995,198.421,60.676,13.285
2017-11-26T09:54:57,42.805,6.029,4330,1995,198.486,60.696,13.285
2017-11-26T09:57:57,42.805,6.029,4330,1995,198.498,60.700,13.285
2017-11-26T10:00:57,42.805,6.029,4330,1995,198.395,60.668,13.285
2017-11-26T10:03:57,42.805,6.029,4330,1995,198.444,60.683,13.285
2017-11-26T10:06:57,42.805,6.029,4330,1995,198.377,60.663,13.286
2017-11-26T10:09:57,42.805,6.029,4330,1995,198.407,60.672,13.285
2017-11-26T10:12:57,42.805,6.029,4330,1995,198.337,60.651,13.286
2017-11-26T10:15:57,42.805,6.029,4330,1995,198.370,60.661,13.286
2017-11-26T10:18:57,42.805,6.029,4330,1995,198.340,60.651,13.285
2017-11-26T10:21:57,42.805,6.029,4330,1995,198.330,60.649,13.285
2017-11-26T10:24:57,42.805,6.029,4330,1995,198.308,60.642,13.286
2017-11-26T10:27:57,42.805,6.029,4330,1995,198.288,60.636,13.286
2017-11-26T10:30:57,42.805,6.029,4330,1995,198.264,60.629,13.286
2017-11-26T10:33:57,42.805,6.029,4330,1995,198.244,60.622,13.286
2017-11-26T10:36:57,42.805,6.029,4330,1995,198.294,60.638,13.285
2017-11-26T10:39:57,42.805,6.029,4330,1995,198.257,60.627,13.286
2017-11-26T10:42:57,42.805,6.029,4330,1995,198.292,60.637,13.286
2017-11-26T10:45:57,42.805,6.029,4330,1995,198.250,60.624,13.285
2017-11-26T10:48:57,42.805,6.029,4330,1995,198.263,60.629,13.286
2017-11-26T10:51:57,42.805,6.029,4330,1995,198.257,60.627,13.286
2017-11-26T10:54:57,42.805,6.029,4330,1995,198.193,60.607,13.286
2017-11-26T10:57:57,42.805,6.029,4330,1995,198.223,60.616,13.286
2017-11-26T11:00:57,42.805,6.029,4330,1995,198.223,60.616,13.286
2017-11-26T11:03:57,42.805,6.029,4330,1995,198.238,60.621,13.286
2017-11-26T11:06:57,42.805,6.029,4330,1995,198.232,60.619,13.286
2017-11-26T11:09:57,42.805,6.029,4330,1995,198.220,60.616,13.286
2017-11-26T11:12:57,42.805,6.029,4330,1995,198.205,60.611,13.286
2017-11-26T11:15:57,42.805,6.029,4330,1995,198.188,60.606,13.286
2017-11-26T11:18:57,42.805,6.029,4330,1995,198.161,60.597,13.286
2017-11-26T11:21:57,42.805,6.029,4330,1995,198.271,60.631,13.286
2017-11-26T11:24:57,42.805,6.029,4330,1995,198.256,60.627,13.286
2017-11-26T11:27:57,42.805,6.029,4330,1995,198.150,60.594,13.286
2017-11-26T11:30:57,42.805,6.029,4330,1995,198.153,60.595,13.286
2017-11-26T11:33:57,42.805,6.029,4330,1995,198.164,60.598,13.286
2017-11-26T11:36:57,42.805,6.029,4330,1995,198.185,60.605,13.286
2017-11-26T11:39:57,42.805,6.029,4330,1995,198.112,60.583,13.286
2017-11-26T11:42:57,42.805,6.029,4330,1995,198.122,60.586,13.286
2017-11-26T11:45:57,42.805,6.029,4330,1995,198.144,60.592,13.286
2017-11-26T11:48:57,42.805,6.029,4330,1995,198.087,60.575,13.286
2017-11-26T11:51:57,42.805,6.029,4330,1995,198.041,60.561,13.286
2017-11-26T11:54:57,42.805,6.029,4330,1995,198.097,60.578,13.286
2017-11-26T11:57:57,42.805,6.029,4330,1995,198.048,60.563,13.286
2017-11-26T12:00:57,42.805,6.029,4330,1995,198.028,60.557,13.286
2017-11-26T12:03:57,42.805,6.029,4330,1995,198.014,60.553,13.286
2017-11-26T12:06:57,42.805,6.029,4330,1995,198.007,60.550,13.286
2017-11-26T12:09:57,42.805,6.029,4330,1995,197.984,60.543,13.286
2017-11-26T12:12:57,42.805,6.029,4330,1995,197.954,60.534,13.286
2017-11-26T12:15:57,42.805,6.029,4330,1995,197.989,60.545,13.286
2017-11-26T12:18:57,42.805,6.029,4330,1995,198.020,60.554,13.286
2017-11-26T12:21:57,42.805,6.029,4330,1995,197.986,60.544,13.286
2017-11-26T12:24:57,42.805,6.029,4330,1995,197.995,60.547,13.286
2017-11-26T12:27:57,42.805,6.029,4330,1995,197.948,60.532,13.286
2017-11-26T12:30:57,42.805,6.029,4330,1995,197.925,60.526,13.286
2017-11-26T12:33:57,42.805,6.029,4330,1995,197.873,60.510,13.286
2017-11-26T12:36:57,42.805,6.029,4330,1995,197.889,60.515,13.286
2017-11-26T12:39:57,42.805,6.029,4330,1995,197.825,60.495,13.286
2017-11-26T12:42:57,42.805,6.029,4330,1995,197.832,60.497,13.286
2017-11-26T12:45:57,42.805,6.029,4330,1995,197.855,60.504,13.286
2017-11-26T12:48:57,42.805,6.029,4330,1995,197.828,60.496,13.286
2017-11-26T12:51:57,42.805,6.029,4330,1995,197.880,60.512,13.286
2017-11-26T12:54:57,42.805,6.029,4330,1995,197.818,60.493,13.286
2017-11-26T12:57:57,42.805,6.029,4330,1995,197.779,60.481,13.286
2017-11-26T13:00:57,42.805,6.029,4330,1995,197.819,60.493,13.286
2017-11-26T13:03:57,42.805,6.029,4330,1995,197.747,60.471,13.286
2017-11-26T13:06:57,42.805,6.029,4330,1995,197.754,60.474,13.286
2017-11-26T13:09:57,42.805,6.029,4330,1995,197.801,60.488,13.286
2017-11-26T13:12:57,42.805,6.029,4330,1995,197.766,60.477,13.286
2017-11-26T13:15:57,42.805,6.029,4330,1995,197.803,60.488,13.286
2017-11-26T13:18:57,42.805,6.029,4330,1995,197.766,60.477,13.286
2017-11-26T13:21:57,42.805,6.029,4330,1995,197.749,60.472,13.286
2017-11-26T13:24:57,42.805,6.029,4330,1995,197.769,60.478,13.286
2017-11-26T13:27:57,42.805,6.029,4330,1995,197.719,60.463,13.286
2017-11-26T13:30:57,42.805,6.029,4330,1995,197.707,60.459,13.286
2017-11-26T13:33:57,42.805,6.029,4330,1995,197.730,60.466,13.286
2017-11-26T13:36:57,42.805,6.029,4330,1995,197.763,60.476,13.286
2017-11-26T13:39:57,42.805,6.029,4330,1995,197.769,60.478,13.286
2017-11-26T13:42:57,42.805,6.029,4330,1995,197.730,60.466,13.286
2017-11-26T13:45:57,42.805,6.029,4330,1995,197.725,60.465,13.286
2017-11-26T13:48:57,42.805,6.029,4330,1995,197.690,60.454,13.286
2017-11-26T13:51:57,42.805,6.029,4330,1995,197.682,60.451,13.286
2017-11-26T13:54:57,42.805,6.029,4330,1995,197.693,60.455,13.286
2017-11-26T13:57:57,42.805,6.029,4330,1995,197.703,60.458,13.286
2017-11-26T14:00:57,42.805,6.029,4330,1995,197.688,60.453,13.286
2017-11-26T14:03:57,42.805,6.029,4330,1995,197.654,60.443,13.286
2017-11-26T14:06:57,42.805,6.029,4330,1995,197.659,60.444,13.286
2017-11-26T14:09:57,42.805,6.029,4330,1995,197.614,60.431,13.286
2017-11-26T14:12:57,42.805,6.029,4330,1995,197.599,60.426,13.286
2017-11-26T14:15:57,42.805,6.029,4330,1995,197.593,60.424,13.286
2017-11-26T14:18:57,42.805,6.029,4330,1995,197.606,60.428,13.286
2017-11-26T14:21:57,42.805,6.029,4330,1995,197.556,60.413,13.286
2017-11-26T14:24:57,42.805,6.029,4330,1995,197.558,60.414,13.286
2017-11-26T14:27:57,42.805,6.029,4330,1995,197.608,60.429,13.286
2017-11-26T14:30:57,42.805,6.029,4330,1995,197.505,60.397,13.286
2017-11-26T14:33:57,42.805,6.029,4330,1995,197.535,60.407,13.286
2017-11-26T14:36:57,42.805,6.029,4330,1995,197.512,60.399,13.286
2017-11-26T14:39:57,42.805,6.029,4330,1995,197.446,60.379,13.286
2017-11-26T14:42:57,42.805,6.029,4330,1995,197.531,60.405,13.286
2017-11-26T14:45:57,42.805,6.029,4330,1995,197.518,60.401,13.286
2017-11-26T14:48:57,42.805,6.029,4330,1995,197.525,60.403,13.286
2017-11-26T14:51:57,42.805,6.029,4330,1995,197.540,60.408,13.286
2017-11-26T14:54:57,42.805,6.029,4330,1995,197.479,60.389,13.286
2017-11-26T14:57:57,42.805,6.029,4330,1995,197.524,60.403,13.286
2017-11-26T15:00:57,42.805,6.029,4330,1995,197.461,60.384,13.287
2017-11-26T15:03:57,42.805,6.029,4330,1995,197.452,60.381,13.286
2017-11-26T15:06:57,42.805,6.029,4330,1995,197.476,60.388,13.286
2017-11-26T15:09:57,42.805,6.029,4330,1995,197.486,60.391,13.286
2017-11-26T15:12:57,42.805,6.029,4330,1995,197.469,60.386,13.286
2017-11-26T15:15:57,42.805,6.029,4330,1995,197.432,60.375,13.286
2017-11-26T15:18:57,42.805,6.029,4330,1995,197.434,60.376,13.286
2017-11-26T15:21:57,42.805,6.029,4330,1995,197.413,60.369,13.286
2017-11-26T15:24:57,42.805,6.029,4330,1995,197.462,60.384,13.286
2017-11-26T15:27:57,42.805,6.029,4330,1995,197.409,60.368,13.286
2017-11-26T15:30:57,42.805,6.029,4330,1995,197.494,60.393,13.286
2017-11-26T15:33:57,42.805,6.029,4330,1995,197.448,60.380,13.286
2017-11-26T15:36:57,42.805,6.029,4330,1995,197.393,60.363,13.286
2017-11-26T15:39:57,42.805,6.029,4330,1995,197.381,60.359,13.286
2017-11-26T15:42:57,42.805,6.029,4330,1995,197.357,60.352,13.286
2017-11-26T15:45:57,42.805,6.029,4330,1995,197.303,60.336,13.286
2017-11-26T15:48:57,42.805,6.029,4330,1995,197.306,60.336,13.286
2017-11-26T15:51:57,42.805,6.029,4330,1995,197.338,60.346,13.286
2017-11-26T15:54:57,42.805,6.029,4330,1995,197.357,60.352,13.286
2017-11-26T15:57:57,42.805,6.029,4330,1995,197.278,60.328,13.286
2017-11-26T16:00:57,42.805,6.029,4330,1995,197.247,60.319,13.286
2017-11-26T16:03:57,42.805,6.029,4330,1995,197.248,60.319,13.286
2017-11-26T16:06:57,42.805,6.029,4330,1995,197.218,60.309,13.286
2017-11-26T16:09:57,42.805,6.029,4330,1995,197.156,60.291,13.286
2017-11-26T16:12:57,42.805,6.029,4330,1995,197.218,60.309,13.286
2017-11-26T16:15:57,42.805,6.029,4330,1995,197.148,60.288,13.286
2017-11-26T16:18:57,42.805,6.029,4330,1995,197.287,60.330,13.286
2017-11-26T16:21:57,42.805,6.029,4330,1995,197.196,60.303,13.286
2017-11-26T16:24:57,42.805,6.029,4330,1995,197.246,60.318,13.286
2017-11-26T16:27:57,42.805,6.029,4330,1995,197.107,60.276,13.286
2017-11-26T16:30:57,42.805,6.029,4330,1995,197.080,60.267,13.286
2017-11-26T16:33:57,42.805,6.029,4330,1995,197.125,60.281,13.286
2017-11-26T16:36:57,42.805,6.029,4330,1995,197.014,60.247,13.286
2017-11-26T16:39:57,42.805,6.029,4330,1995,197.046,60.257,13.286
2017-11-26T16:42:57,42.805,6.029,4330,1995,197.045,60.257,13.286
2017-11-26T16:45:57,42.805,6.029,4330,1995,197.139,60.285,13.286
2017-11-26T16:48:57,42.805,6.029,4330,1995,197.101,60.273,13.286
2017-11-26T16:51:57,42.805,6.029,4330,1995,197.047,60.257,13.286
2017-11-26T16:54:57,42.805,6.029,4330,1995,197.107,60.276,13.286
2017-11-26T16:57:57,42.805,6.029,4330,1995,197.120,60.280,13.286
2017-11-26T17:00:57,42.805,6.029,4330,1995,197.004,60.244,13.286
2017-11-26T17:03:57,42.805,6.029,4330,1995,197.027,60.252,13.287
2017-11-26T17:06:57,42.805,6.029,4330,1995,197.054,60.260,13.287
2017-11-26T17:09:57,42.805,6.029,4330,1995,197.022,60.250,13.287
2017-11-26T17:12:57,42.805,6.029,4330,1995,196.926,60.221,13.286
2017-11-26T17:15:57,42.805,6.029,4330,1995,196.946,60.227,13.286
2017-11-26T17:18:57,42.805,6.029,4330,1995,196.887,60.208,13.286
2017-11-26T17:21:57,42.805,6.029,4330,1995,196.802,60.183,13.286
2017-11-26T17:24:57,42.805,6.029,4330,1995,196.853,60.198,13.286
2017-11-26T17:27:57,42.805,6.029,4330,1995,196.773,60.174,13.287
2017-11-26T17:30:57,42.805,6.029,4330,1995,196.755,60.169,13.287
2017-11-26T17:33:57,42.805,6.029,4330,1995,196.714,60.156,13.286
2017-11-26T17:36:57,42.805,6.029,4330,1995,196.624,60.129,13.287
2017-11-26T17:39:57,42.805,6.029,4330,1995,196.645,60.135,13.287
2017-11-26T17:42:57,42.805,6.029,4330,1995,196.643,60.134,13.287
2017-11-26T17:45:57,42.805,6.029,4330,1995,196.675,60.144,13.286
2017-11-26T17:48:57,42.805,6.029,4330,1995,196.678,60.145,13.286
2017-11-26T17:51:57,42.805,6.029,4330,1995,196.667,60.142,13.287
2017-11-26T17:54:57,42.805,6.029,4330,1995,196.672,60.143,13.287
2017-11-26T17:57:57,42.805,6.029,4330,1995,196.744,60.165,13.287
2017-11-26T18:00:57,42.805,6.029,4330,1995,196.687,60.148,13.287
2017-11-26T18:03:57,42.805,6.029,4330,1995,196.632,60.131,13.287
2017-11-26T18:06:57,42.805,6.029,4330,1995,196.501,60.091,13.286